Weather History for Sexton Summit, OR

Change the Weather History Date:

Saturday, October 27, 2012

  Actual Average Record
Temperature  
Mean Temperature 46 °F -  
Max Temperature 51 °F 49 °F 73 °F (2003)
Min Temperature 42 °F 37 °F 30 °F (2010)
Degree Days  
Heating Degree Days 18    
Moisture  
Dew Point 45 °F    
Average Humidity 96    
Maximum Humidity 100    
Minimum Humidity 87    
Precipitation  
Precipitation 0.05 in - - ()
Sea Level Pressure  
Sea Level Pressure 30.15 in    
Wind  
Wind Speed 11 mph (SSW)    
Max Wind Speed 15 mph    
Max Gust Speed 22 mph    
Visibility 2 miles    
Events Fog , Rain    
Averages and records for this station are not official NWS values.
T = Trace of Precipitation, MM = Missing Value Source: NWS Daily Summary

Daily Weather History Graph

Daily Weather History Graph

Search for Another Location

Airport:

Trip Planner

Search our weather history database for the weather conditions in past years. The results will help you decide how hot, cold, wet, or windy it might be!

Date:

Astronomy

Oct. 27, 2012 Rise Set
Actual Time 7:41 AM PDT 6:12 PM PDT
Civil Twilight 7:12 AM PDT 6:41 PM PDT
Nautical Twilight 6:39 AM PDT 7:14 PM PDT
Astronomical Twilight 6:06 AM PDT 7:46 PM PDT
Moon 5:02 PM PDT (10/27) 5:40 AM PDT (10/27)
Length of Visible Light 11h 28m
Length of Day
10h 30m
Waxing Gibbous, 96% of the Moon is Illuminated
Oct 27
Waxing Gibbous
Oct 29
Full
Nov 6
Last Quarter
Nov 13
New
Nov 20
First Quarter

Hourly Weather History & Observations

Time (PDT) Temp. Windchill Dew Point Humidity Pressure Visibility Wind Dir Wind Speed Gust Speed Precip Events Conditions
12:05 AM 44.6 °F 38.8 °F 42.8 °F 93% 30.19 in 1.0 mi South 11.5 mph - N/A   Mist
12:12 AM 44.6 °F 38.8 °F 42.8 °F 93% 30.18 in 0.8 mi South 11.5 mph - N/A   Mostly Cloudy
12:15 AM 44.6 °F 38.8 °F 42.8 °F 93% 30.18 in 1.2 mi South 11.5 mph - N/A   Mostly Cloudy
12:17 AM 44.6 °F 38.8 °F 42.8 °F 93% 30.18 in 2.0 mi South 11.5 mph - N/A   Overcast
12:25 AM 44.6 °F 38.8 °F 42.8 °F 93% 30.19 in 6.0 mi SSW 11.5 mph 18.4 mph N/A   Overcast
12:47 AM 44.6 °F 38.8 °F 42.8 °F 93% 30.19 in 4.0 mi South 11.5 mph - N/A   Mostly Cloudy
12:56 AM 44.1 °F 37.7 °F 43.0 °F 96% 30.17 in 2.0 mi South 12.7 mph - N/A   Mostly Cloudy
12:58 AM 44.6 °F 38.8 °F 42.8 °F 93% 30.18 in 1.2 mi South 11.5 mph - N/A   Overcast
1:31 AM 44.6 °F 38.8 °F 42.8 °F 93% 30.18 in 0.5 mi SSW 11.5 mph - N/A Fog Fog
1:56 AM 44.1 °F 38.6 °F 43.0 °F 96% 30.16 in 0.5 mi South 10.4 mph 18.4 mph N/A Fog Fog
2:07 AM 44.6 °F 38.8 °F 44.6 °F 100% 30.18 in 0.2 mi South 11.5 mph - N/A Fog Fog
2:56 AM 45.0 °F 39.3 °F 44.1 °F 97% 30.15 in 0.2 mi South 11.5 mph - N/A Fog Fog
3:26 AM 44.6 °F 38.8 °F 42.8 °F 93% 30.18 in 0.8 mi South 11.5 mph - N/A   Overcast
3:29 AM 44.6 °F 38.8 °F 42.8 °F 93% 30.18 in 2.0 mi South 11.5 mph - N/A   Overcast
3:36 AM 44.6 °F 38.4 °F 42.8 °F 93% 30.18 in 10.0 mi South 12.7 mph - N/A   Overcast
3:56 AM 43.0 °F 36.8 °F 42.1 °F 97% 30.15 in 10.0 mi South 11.5 mph - N/A   Overcast
4:56 AM 43.0 °F 36.8 °F 41.0 °F 93% 30.15 in 8.0 mi South 11.5 mph - 0.01 in Rain Light Rain
5:04 AM 44.6 °F 39.2 °F 41.0 °F 87% 30.17 in 10.0 mi SSW 10.4 mph - 0.00 in   Overcast
5:56 AM 44.1 °F 38.1 °F 42.1 °F 93% 30.16 in 8.0 mi SSW 11.5 mph - 0.02 in Rain Light Rain
6:38 AM 44.6 °F 39.7 °F 42.8 °F 93% 30.17 in 1.5 mi South 9.2 mph - 0.01 in Rain Light Rain
6:40 AM 42.8 °F 37.0 °F 42.8 °F 100% 30.16 in 0.8 mi SSW 10.4 mph - 0.01 in Rain Light Rain
6:50 AM 44.6 °F 38.4 °F 42.8 °F 93% 30.16 in 1.8 mi SSW 12.7 mph - 0.02 in Rain Light Rain
6:52 AM 44.6 °F 38.8 °F 42.8 °F 93% 30.16 in 3.0 mi SSW 11.5 mph - 0.02 in Rain Light Rain
6:56 AM 44.1 °F 38.1 °F 43.0 °F 96% 30.15 in 3.0 mi South 11.5 mph - 0.02 in Rain Light Rain
6:58 AM 44.6 °F 38.4 °F 42.8 °F 93% 30.16 in 1.5 mi South 12.7 mph - 0.00 in Rain Light Rain
7:00 AM 44.6 °F 38.8 °F 42.8 °F 93% 30.16 in 0.8 mi South 11.5 mph - 0.00 in Rain Light Rain
7:11 AM 42.8 °F 35.8 °F 42.8 °F 100% 30.15 in 1.0 mi South 13.8 mph - 0.00 in   Overcast
7:16 AM 42.8 °F 36.6 °F 42.8 °F 100% 30.15 in 1.8 mi South 11.5 mph - 0.00 in   Overcast
7:18 AM 42.8 °F 37.0 °F 42.8 °F 100% 30.16 in 1.2 mi South 10.4 mph - 0.00 in   Overcast
7:22 AM 42.8 °F 37.5 °F 42.8 °F 100% 30.16 in 0.8 mi South 9.2 mph - 0.00 in   Overcast
7:35 AM 42.8 °F 35.8 °F 42.8 °F 100% 30.15 in 1.0 mi South 13.8 mph - 0.00 in   Overcast
7:40 AM 42.8 °F 37.0 °F 42.8 °F 100% 30.16 in 2.0 mi SSW 10.4 mph - 0.00 in   Overcast
7:47 AM 42.8 °F 36.6 °F 42.8 °F 100% 30.16 in 3.0 mi South 11.5 mph - 0.00 in   Overcast
7:52 AM 42.8 °F 36.6 °F 42.8 °F 100% 30.16 in 1.8 mi SSW 11.5 mph - 0.00 in   Overcast
7:56 AM 43.0 °F 36.8 °F 42.1 °F 97% 30.15 in 2.0 mi South 11.5 mph - 0.00 in Rain Light Rain
8:07 AM 44.6 °F 38.4 °F 42.8 °F 93% 30.16 in 4.0 mi South 12.7 mph - 0.00 in   Overcast
8:11 AM 44.6 °F 38.4 °F 42.8 °F 93% 30.16 in 1.2 mi South 12.7 mph - 0.00 in   Overcast
8:18 AM 44.6 °F 38.4 °F 42.8 °F 93% 30.17 in 0.5 mi South 12.7 mph - 0.00 in Fog Fog
8:37 AM 44.6 °F 38.4 °F 42.8 °F 93% 30.17 in 0.2 mi South 12.7 mph - 0.00 in Fog Fog
8:56 AM 44.1 °F 37.7 °F 43.0 °F 96% 30.15 in 0.2 mi South 12.7 mph - 0.00 in Fog , Rain Light Rain
9:56 AM 45.0 °F 38.9 °F 44.1 °F 97% 30.16 in 0.2 mi South 12.7 mph - 0.00 in Fog Fog
10:56 AM 45.0 °F 38.9 °F 45.0 °F 100% 30.16 in 0.2 mi South 12.7 mph - 0.00 in Fog , Rain Light Rain
12:56 PM 46.9 °F - 46.9 °F 100% 30.14 in 0.2 mi SSW 15.0 mph 21.9 mph 0.00 in Fog , Rain Light Rain
1:56 PM 48.0 °F - 48.0 °F 100% 30.13 in 0.2 mi SSW 13.8 mph 20.7 mph 0.00 in Fog , Rain Light Rain
2:56 PM 50.0 °F - 48.9 °F 96% 30.11 in 0.2 mi SSW 12.7 mph 20.7 mph 0.00 in Fog , Rain Light Rain
3:56 PM 50.0 °F - 50.0 °F 100% 30.11 in 0.2 mi SSW 11.5 mph 18.4 mph 0.00 in Fog Fog
4:56 PM 51.1 °F - 50.0 °F 96% 30.10 in 0.2 mi SSW 12.7 mph 17.3 mph N/A Fog Fog
5:56 PM 51.1 °F - 50.0 °F 96% 30.09 in 0.2 mi SSW 11.5 mph 18.4 mph 0.00 in Fog Fog
6:56 PM 51.1 °F - 50.0 °F 96% 30.10 in 0.2 mi SW 9.2 mph - N/A Fog Fog
7:26 PM 50.0 °F - 50.0 °F 100% 30.13 in 0.2 mi SW 8.1 mph - N/A Fog Fog
7:41 PM 50.0 °F - 50.0 °F 100% 30.13 in 0.5 mi SW 9.2 mph - N/A Fog Fog
7:49 PM 50.0 °F - 50.0 °F 100% 30.13 in 0.2 mi SW 9.2 mph - N/A Fog Fog
7:56 PM 50.0 °F - 50.0 °F 100% 30.11 in 0.2 mi SW 6.9 mph - N/A Fog Fog
8:17 PM 50.0 °F - 50.0 °F 100% 30.14 in 0.2 mi Variable 6.9 mph - N/A Fog Fog
8:45 PM 50.0 °F - 48.2 °F 94% 30.14 in 0.8 mi SW 5.8 mph - N/A   Overcast
8:50 PM 50.0 °F - 48.2 °F 94% 30.14 in 0.2 mi Variable 3.5 mph - N/A Fog Fog
8:56 PM 50.0 °F - 50.0 °F 100% 30.12 in 0.2 mi SW 5.8 mph - N/A Fog Fog
9:11 PM 50.0 °F - 48.2 °F 94% 30.14 in 0.5 mi Variable 6.9 mph - N/A Fog Fog
9:32 PM 50.0 °F - 48.2 °F 94% 30.14 in 0.2 mi SSW 9.2 mph 16.1 mph N/A Fog Fog
9:56 PM 50.0 °F - 48.9 °F 96% 30.11 in 0.2 mi SSW 8.1 mph - 0.00 in Fog , Rain Light Rain
10:56 PM 50.0 °F - 48.9 °F 96% 30.12 in 0.2 mi South 9.2 mph - 0.00 in Fog , Rain Light Rain
11:56 PM 50.0 °F - 48.9 °F 96% 30.11 in 0.2 mi South 10.4 mph - 0.00 in Fog , Rain Light Rain